Welcome to the New NWS' Forecast!
Most changes are behind the scenes, but click here for differences you might notice.
Latest weather observations around

EW3298 Indio (E3298)

Using English Units (Switch to International System of Units)
Date/ Time (PDT) Wind (mph) Vis. (mi) Weather Sky Cond. Temp (°F) Rel. Humidity Wind Chill (°F) Heat Index (°F) Pressure Precip. (in)
Air Dwpt 6 hour Altimeter (inHg) Sea level (inHg) 1 hr 3 hr 6 hr
Max Min
Oct 18 13:30 W 3   Clear   85 38     19%   82 30        
Oct 18 13:16 W 1   Clear   85 38     19%   82 30.01        
Oct 18 13:00 Calm   Clear   84 37     19%   81 30.02        
Oct 18 12:45 Calm   Clear   84 37     19%   81 30.03        
Oct 18 12:30 Calm   Clear   84 37     19%   81 30.03        
Oct 18 12:15 Calm   Clear   83 38     20%   81 30.04        
Oct 18 12:00 W 4   Clear   83 38     20%   81 30.05        
Oct 18 11:45 Calm   Clear   83 38     20%   81 30.05        
Oct 18 11:30 Calm   Clear   82 38     21%   80 30.06        
Oct 18 11:15 WNW 3   Clear   81 37     21%   80 30.06        
Oct 18 11:00 WNW 1   Clear   81 41     24%   80 30.06        
Oct 18 10:46 WNW 2   Clear   80 41     25%   79 30.07        
Oct 18 10:32 Calm   Clear   79 41     26%   78 30.07        
Oct 18 10:16 Calm   Clear   78 40     26%   77 30.08        
Oct 18 10:01 WNW 4   Clear   78 40     26%   77 30.08        
Oct 18 09:46 Calm   Clear   77 42     29%   76 30.08        
Oct 18 09:31 Calm   Clear   76 41     29%   75 30.09        
Oct 18 09:16 WNW 2   Clear   75 41     30%   74 30.08        
Oct 18 09:01 WNW 1   Clear   73 41     32%   72 30.08        
Oct 18 08:46 NW 2   Clear   72 41     33%   70 30.08        
Oct 18 08:16 NW 1   Clear   69 39     33%     30.08        
Oct 18 08:01 Calm   Clear   66 42     42%     30.07        
Oct 18 07:45 Calm   Clear   64 42     44%     30.07        
Oct 18 07:30 Calm   Clear   63 41     45%     30.07        
Oct 18 07:15 Calm   Clear   62 41     46%     30.06        
Oct 18 07:00 NNE 1   Clear   61 41     47%     30.06        
Oct 18 06:45 Calm   Clear   61 41     48%     30.06        
Oct 18 06:30 Calm   Clear   61 41     48%     30.05        
Oct 18 06:15 Calm   Clear   61 41     48%     30.05        
Oct 18 06:00 Calm   Clear   61 41     48%     30.05        
Oct 18 05:45 Calm   Clear   61 42     49%     30.04        
Oct 18 05:30 Calm   Clear   62 42     47%     30.04        
Oct 18 05:15 Calm   Clear   63 41     45%     30.04        
Oct 18 05:00 Calm   Clear   63 41     45%     30.03        
Oct 18 04:45 Calm   Clear   64 42     44%     30.03        
Oct 18 04:30 Calm   Clear   64 41     43%     30.03        
Oct 18 04:15 Calm   Clear   63 41     45%     30.03        
Oct 18 04:00 NNE 1   Clear   64 42     44%     30.02        
Oct 18 03:45 Calm   Clear   64 41     43%     30.02        
Oct 18 03:30 Calm   Clear   65 41     42%     30.02        
Oct 18 03:15 NNE 1   Clear   64 41     43%     30.03        
Oct 18 03:00 Calm   Clear   64 42     44%     30.03        
Oct 18 02:45 NNE 1   Clear   64 42     44%     30.03        
Oct 18 02:31 NNE 1   Clear   64 43     46%     30.03        
Oct 18 02:16 Calm   Clear   63 43     48%     30.03        
Oct 18 02:01 Calm   Clear   64 44     48%     30.04        
Oct 18 01:46 Calm   Clear   65 44     46%     30.04        
Oct 18 01:31 Calm   Clear   66 43     44%     30.04        
Oct 18 01:02 Calm   Clear   65 44     46%     30.04        
Oct 18 00:46 Calm   Clear   65 44     47%     30.04        
Oct 18 00:31 Calm   Clear   65 44     46%     30.04        
Oct 18 00:16 Calm   Clear   66 43     44%     30.04        
Oct 18 00:01 Calm   Clear   67 44     44%     30.04        
Oct 17 23:46 Calm   Clear   68 45     43%     30.04        
Oct 17 23:31 Calm   Clear   67 44     44%     30.04        
Oct 17 23:15 Calm   Clear   67 44     44%     30.04        
Oct 17 23:00 Calm   Clear   68 45     43%     30.04        
Oct 17 22:45 Calm   Clear   68 44     42%     30.04        
Oct 17 22:31 Calm   Clear   69 44     41%     30.04        
Oct 17 22:16 Calm   Clear   69 43     39%     30.04        
Oct 17 22:01 Calm   Clear   70 43     38%     30.04        
Oct 17 21:46 Calm   Clear   70 45     40%     30.04        
Oct 17 21:31 Calm   Clear   70 44     39%     30.04        
Oct 17 21:15 Calm   Clear   70 43     38%     30.03        
Oct 17 21:01 Calm   Clear   71 43     36%   69 30.03        
Oct 17 20:45 Calm   Clear   72 43     35%   71 30.03        
Oct 17 20:31 Calm   Clear   73 43     34%   72 30.03        
Oct 17 20:16 Calm   Clear   73 42     33%   72 30.03        
Oct 17 20:00 Calm   Clear   74 41     31%   73 30.03        
Oct 17 19:46 Calm   Clear   75 41     29%   74 30.02        
Oct 17 19:30 Calm   Clear   76 41     28%   75 30.02        
Oct 17 19:16 Calm   Clear   76 41     28%   75 30.02        
Oct 17 19:01 Calm   Clear   78 40     26%   77 30.01        
Oct 17 18:45 Calm   Clear   79 39     24%   78 30        
Oct 17 18:31 Calm   Clear   79 38     23%   78 30        
Oct 17 18:15 NNE 1   Clear   80 38     22%   79 29.99        
Oct 17 17:46 Calm   Clear   81 37     21%   80 29.99        
Oct 17 17:31 Calm   Clear   81 37     21%   80 29.99        
Oct 17 17:15 N 3   Clear   81 36     20%   80 29.98        
Oct 17 17:00 Calm   Clear   82 37     20%   80 29.99        
Oct 17 16:45 Calm   Clear   82 37     20%   80 29.99        
Oct 17 16:30 NNE 1   Clear   82 38     21%   80 29.99        
Oct 17 16:15 NE 5   Clear   82 37     20%   80 29.99        
Oct 17 16:00 N 2   Clear   82 36     19%   80 29.99        
Oct 17 15:45 NNE 1   Clear   82 36     19%   80 29.99        
Oct 17 15:31 Calm   Clear   82 37     20%   80 30        
Oct 17 15:15 Calm   Clear   82 37     20%   80 30        
Oct 17 15:00 Calm   Clear   82 37     20%   80 30        
Oct 17 14:45 Calm   Clear   82 38     21%   80 30.01        
Oct 17 14:30 Calm   Clear   81 37     21%   80 30.01        
Oct 17 14:15 Calm   Clear   81 37     21%   80 30.02        
Oct 17 14:00 WNW 1   Clear   81 39     22%   80 30.02        
Oct 17 13:45 WNW 3   Clear   81 37     21%   80 30.03        
Oct 17 13:30 WNW 4   Clear   81 39     22%   80 30.03        
Oct 17 13:15 W 1   Clear   80 38     22%   79 30.05        
Oct 17 13:00 Calm   Clear   80 39     23%   79 30.05        
Oct 17 12:47 WNW 1   Clear   79 38     23%   78 30.06        
Oct 17 12:31 SSW 3   Clear   79 40     25%   78 30.06        
Oct 17 12:17 Calm   Clear   78 38     24%   77 30.07        
Oct 17 12:01 W 3   Clear   78 39     25%   77 30.08        
Oct 17 11:31 Calm   Clear   76 41     28%   75 30.09        
Oct 17 11:16 Calm   Clear   75 40     28%   74 30.09        
Oct 17 11:01 Calm   Clear   75 41     29%   74 30.1        
Oct 17 10:47 Calm   Clear   74 41     31%   73 30.1        
Oct 17 10:31 Calm   Clear   73 41     32%   72 30.11        
Oct 17 10:16 Calm   Clear   72 41     33%   70 30.11        
Oct 17 10:01 Calm   Clear   72 41     33%   70 30.11        
Oct 17 09:45 Calm   Clear   71 42     35%   69 30.11        
Oct 17 09:30 Calm   Clear   70 42     36%     30.12        
Oct 17 09:15 Calm   Clear   68 41     37%     30.11        
Oct 17 09:00 Calm   Clear   67 40     37%     30.11        
Oct 17 08:45 Calm   Clear   66 39     37%     30.11        
Oct 17 08:31 Calm   Clear   66 40     38%     30.11        
Oct 17 08:16 Calm   Clear   65 39     38%     30.11        
Oct 17 08:00 Calm   Clear   63 38     40%     30.11        
Oct 17 07:45 Calm   Clear   63 39     41%     30.1        
Oct 17 07:30 Calm   Clear   62 37     39%     30.09        
Oct 17 07:15 Calm   Clear   61 36     39%     30.09        
Oct 17 07:00 Calm   Clear   61 36     39%     30.09        
Oct 17 06:45 NW 1   Clear   61 35     37%     30.08        
Oct 17 06:30 Calm   Clear   61 35     37%     30.08        
Oct 17 06:15 NW 1   Clear   61 34     36%     30.07        
Oct 17 05:46 NW 2   Clear   59 35     40%     30.07        
Oct 17 05:16 NW 2   Clear   59 35     40%     30.06        
Oct 17 05:01 NW 1   Clear   59 35     40%     30.06        
Oct 17 04:47 Calm   Clear   59 35     41%     30.06        
Oct 17 04:31 NW 1   Clear   59 36     42%     30.06        
Oct 17 04:16 NW 4   Clear   59 35     41%     30.05        
Oct 17 04:01 NW 3   Clear   60 35     39%     30.05        
Oct 17 03:46 Calm   Clear   60 34     37%     30.04        
Oct 17 03:31 Calm   Clear   60 34     37%     30.04        
Oct 17 03:18 NW 1   Clear   61 34     36%     30.05        
Oct 17 03:01 Calm   Clear   61 34     36%     30.05        
Oct 17 02:46 Calm   Clear   62 33     34%     30.05        
Oct 17 02:31 Calm   Clear   62 32     32%     30.05        
Oct 17 02:16 Calm   Clear   62 33     34%     30.05        
Oct 17 02:00 NNW 2   Clear   62 33     34%     30.05        
Oct 17 01:46 Calm   Clear   62 33     34%     30.05        
Oct 17 01:31 NNW 1   Clear   62 33     33%     30.04        
Oct 17 01:16 NNW 1   Clear   63 33     33%     30.04        
Oct 17 01:01 Calm   Clear   63 32     31%     30.04        
Oct 17 00:45 Calm   Clear   63 33     32%     30.04        
Oct 17 00:30 Calm   Clear   63 33     32%     30.04        
Oct 17 00:15 Calm   Clear   64 33     31%     30.04        
Oct 17 00:01 Calm   Clear   64 34     32%     30.04        
Oct 16 23:45 Calm   Clear   64 33     31%     30.04        
Oct 16 23:30 Calm   Clear   64 32     30%     30.04        
Oct 16 23:15 Calm   Clear   64 33     31%     30.04        
Oct 16 23:00 Calm   Clear   65 33     30%     30.05        
Oct 16 22:45 Calm   Clear   66 32     28%     30.04        
Oct 16 22:30 Calm   Clear   66 30     26%     30.04        
Oct 16 22:00 Calm   Clear   67 29     24%     30.04        
Oct 16 21:45 Calm   Clear   67 33     28%     30.03        
Oct 16 21:30 Calm   Clear   68 31     25%     30.03        
Oct 16 21:15 Calm   Clear   70 28     21%     30.03        
Oct 16 21:01 Calm   Clear   71 28     20%   69 30.02        
Oct 16 20:45 Calm   Clear   71 27     19%   69 30.02        
Oct 16 20:30 Calm   Clear   71 27     19%   69 30.02        
Oct 16 20:15 Calm   Clear   72 26     18%   70 30.02        
Oct 16 20:00 Calm   Clear   73 21     14%   71 30.01        
Oct 16 19:45 Calm   Clear   74 23     15%   72 30.01        
Oct 16 19:30 Calm   Clear   74 22     14%   72 30        
Oct 16 19:15 Calm   Clear   75 24     15%   73 30        
Oct 16 19:00 Calm   Clear   76 23     14%   74 29.99        
Oct 16 18:45 Calm   Clear   77 22     13%   75 29.99        
Oct 16 18:30 Calm   Clear   78 17     10%   76 29.99        
Oct 16 18:15 Calm   Clear   78 15     9%   76 29.99        
Oct 16 18:00 Calm   Clear   79 15     9%   77 29.98        
Oct 16 17:45 Calm   Clear   79 15     9%   77 29.98        
Oct 16 17:30 Calm   Clear   80 13     8%   78 29.98        
Oct 16 17:15 Calm   Clear   81 14     8%   79 29.98        
Oct 16 17:00 Calm   Clear   81 14     8%   79 29.98        
Oct 16 16:45 Calm   Clear   81 14     8%   79 29.98        
Oct 16 16:30 Calm   Clear   81 11     7%   79 29.98        
Oct 16 16:15 Calm   Clear   80 13     8%   78 29.98        
Oct 16 16:00 Calm   Clear   81 14     8%   79 29.98        
Oct 16 15:45 Calm   Clear   81 11     7%   79 29.98        
Oct 16 15:30 Calm   Clear   81 14     8%   79 29.98        
Oct 16 15:15 WNW 1   Clear   81 14     8%   79 29.98        
Oct 16 14:45 WNW 4   Clear   80 13     8%   78 29.99        
Oct 16 14:32 Calm   Clear   80 13     8%   78 29.99        
Oct 16 14:16 Calm   Clear   79 13     8%   77 29.99        
Oct 16 14:01 Calm   Clear   79 13     8%   77 29.99        
Oct 16 13:46 W 3   Clear   79 15     9%   77 30        
Oct 16 13:31 Calm   Clear   80 16     9%   78 30        
Oct 16 13:16 NNE 3   Clear   79 13     8%   77 30.01        
Oct 16 13:01 Calm   Clear   79 18     10%   77 30.02        
Oct 16 12:46 W 7   Clear   78 15     9%   76 30.03        
Oct 16 12:31 N 8   Clear   78 15     9%   76 30.03        
Oct 16 12:16 NW 9   Clear   78 15     9%   76 30.04        
Oct 16 12:00 W 1   Clear   77 16     10%   75 30.04        
Oct 16 11:46 Calm   Clear   77 16     10%   75 30.04        
Oct 16 11:31 Calm   Clear   77 16     10%   75 30.05        
Oct 16 11:16 NNW 3   Clear   76 16     10%   74 30.05        
Oct 16 11:01 NNW 6   Clear   76 18     11%   74 30.06        
Oct 16 10:45 WNW 5   Clear   75 15     10%   73 30.06        
Oct 16 10:30 WNW 7   Clear   75 17     11%   73 30.06        
Oct 16 10:15 WNW 9   Clear   74 16     11%   72 30.06        
Oct 16 10:00 WNW 9   Clear   74 18     12%   72 30.07        
Oct 16 09:46 W 9   Clear   73 17     12%   71 30.07        
Oct 16 09:30 NNW 6   Clear   73 17     12%   71 30.07        
Oct 16 09:15 NW 4   Clear   72 20     14%   70 30.08        
Oct 16 09:00 WNW 6   Clear   71 21     15%   69 30.08        
Oct 16 08:30 WNW 2   Clear   69 22     17%     30.07        
Oct 16 08:15 WNW 3   Clear   67 21     17%     30.06        
Oct 16 08:00 WNW 6   Clear   66 23     19%     30.06        
Oct 16 07:45 Calm   Clear   64 23     21%     30.06        
Oct 16 07:30 WNW 1   Clear   63 21     20%     30.05        
Oct 16 07:15 Calm   Clear   62 23     22%     30.05        
Oct 16 07:00 WNW 1   Clear   62 20     20%     30.05        
Oct 16 06:45 Calm   Clear   61 23     23%     30.04        
Oct 16 06:30 Calm   Clear   61 21     21%     30.04        
Oct 16 06:15 ENE 5   Clear   65 23     20%     30.04        
Oct 16 06:00 WNW 5   Clear   64 18     17%     30.03        
Oct 16 05:45 Calm   Clear   60 22     23%     30.03        
Oct 16 05:31 Calm   Clear   62 23     22%     30.03        
Oct 16 05:16 WNW 4   Clear   63 19     18%     30.03        
Oct 16 05:02 WNW 4   Clear   64 20     18%     30.03        
Oct 16 04:47 NW 3   Clear   66 19     16%     30.03        
Oct 16 04:31 WNW 4   Clear   66 17     15%     30.03        
Oct 16 04:16 NW 5   Clear   66 17     15%     30.03        
Oct 16 04:02 WNW 6   Clear   63 19     18%     30.02        
Oct 16 03:46 W 6   Clear   63 20     19%     30.02        
Oct 16 03:31 W 5   Clear   65 19     17%     30.01        
Oct 16 03:16 W 6   Clear   65 19     17%     30.01        
Oct 16 03:01 W 7   Clear   65 18     16%     30.01        
Oct 16 02:46 WNW 7   Clear   66 17     15%     30.01        
Oct 16 02:31 WNW 5   Clear   66 17     15%     30.01        
Oct 16 02:16 WNW 7   Clear   67 16     14%     30.01        
Oct 16 02:00 WNW 4   Clear   69 16     13%     30.01        
Oct 16 01:47 NW 5   Clear   68 14     12%     30.01        
Oct 16 01:15 W 6   Clear   65 19     17%     30.01        
Oct 16 01:00 W 6   Clear   66 17     15%     30        
Oct 16 00:46 WNW 4   Clear   64 17     16%     30.01        
Oct 16 00:30 Calm   Clear   63 21     20%     30.01        
Oct 16 00:16 Calm   Clear   64 20     18%     30.01        
Oct 16 00:00 Calm   Clear   66 19     16%     30.01        
Oct 15 23:46 Calm   Clear   66 15     14%     30.01        
Oct 15 23:30 Calm   Clear   68 15     13%     30.02        
Oct 15 23:16 Calm   Clear   69 12     11%     30.02        
Oct 15 23:00 WNW 3   Clear   70 11     10%     30.03        
Oct 15 22:45 Calm   Clear   70 13     11%     30.03        
Oct 15 22:30 Calm   Clear   71 12     10%   68 30.03        
Oct 15 22:15 W 3   Clear   70 11     10%     30.03        
Oct 15 22:00 W 3   Clear   71 12     10%   68 30.03        
Oct 15 21:45 W 4   Clear   72 10     9%   69 30.03        
Oct 15 21:30 NNW 1   Clear   72 7     8%   69 30.03        
Oct 15 21:15 Calm   Clear   71 9     9%   68 30.03        
Oct 15 21:00 NW 1   Clear   71 12     10%   68 30.03        
Oct 15 20:46 Calm   Clear   71 9     9%   68 30.03        
Oct 15 20:30 WSW 1   Clear   71 12     10%   68 30.02        
Oct 15 20:15 WNW 4   Clear   71 9     9%   68 30.02        
Oct 15 20:01 Calm   Clear   71 14     11%   68 30.03        
Oct 15 19:45 Calm   Clear   71 12     10%   68 30.02        
Oct 15 19:30 W 4   Clear   72 12     10%   69 30.02        
Oct 15 19:15 W 5   Clear   72 12     10%   69 30.02        
Oct 15 19:00 WNW 2   Clear   73 11     9%   70 30.02        
Oct 15 18:45 W 5   Clear   73 11     9%   70 30.02        
Oct 15 18:30 WNW 4   Clear   73 11     9%   70 30.02        
Oct 15 18:00 NW 5   Clear   75 7     7%   73 30.02        
Oct 15 17:45 NNW 6   Clear   75 7     7%   73 30.02        
Oct 15 17:30 NW 5   Clear   76 10     8%   74 30.02        
Oct 15 17:15 NNW 9   Clear   76 7     7%   74 30.02        
Oct 15 17:00 NW 6   Clear   76 10     8%   74 30.02        
Oct 15 16:45 NNW 8   Clear   76 10     8%   74 30.02        
Oct 15 16:30 NNW 6   Clear   77 11     8%   75 30.02        
Oct 15 16:15 NNW 10   Clear   77 11     8%   75 30.03        
Oct 15 16:00 N 10   Clear   77 11     8%   75 30.03        
Oct 15 15:45 NNW 11   Clear   77 11     8%   75 30.03        
Oct 15 15:30 NNE 9   Clear   77 14     9%   75 30.03        
Oct 15 15:15 NW 8   Clear   77 14     9%   75 30.03        
Oct 15 15:00 NNE 12   Clear   77 14     9%   75 30.03        
Oct 15 14:45 NNW 7   Clear   77 16     10%   75 30.04        
Oct 15 14:30 NW 3   Clear   76 16     10%   74 30.04        
Oct 15 14:15 NW 8   Clear   76 16     10%   74 30.05        
Oct 15 14:00 NW 6   Clear   76 18     11%   74 30.06        
Oct 15 13:45 WNW 3   Clear   76 18     11%   74 30.07        
Oct 15 13:30 NW 12   Clear   76 16     10%   74 30.08        
Oct 15 13:17 WNW 10   Clear   75 17     11%   73 30.08        
Oct 15 13:01 W 7   Clear   74 18     12%   72 30.09        
Oct 15 12:46 NW 10   Clear   74 16     11%   72 30.1        
Oct 15 12:31 NW 15   Clear   74 18     12%   72 30.11        
Oct 15 12:16 W 6   Clear   73 17     12%   71 30.12        
Oct 15 11:46 W 10   Clear   73 17     12%   71 30.13        
Oct 15 11:31 NNW 10   Clear   72 17     12%   69 30.14        
Oct 15 11:16 NW 8   Clear   72 18     13%   70 30.14        
Oct 15 11:01 N 8   Clear   72 18     13%   70 30.15        
Oct 15 10:46 NW 10   Clear   71 18     13%   68 30.14        
Oct 15 10:31 NW 9   Clear   71 18     13%   68 30.15        
Oct 15 10:16 WNW 7   Clear   70 17     13%     30.15        
Oct 15 10:01 NW 6   Clear   70 17     13%     30.15        
Oct 15 09:46 NW 7   Clear   70 17     13%     30.15        
Oct 15 09:31 NW 8   Clear   69 14     12%     30.15        
Oct 15 09:16 WNW 8   Clear   69 14     12%     30.15        
Oct 15 09:00 WNW 7   Clear   68 15     13%     30.15        
Oct 15 08:46 NW 8   Clear   68 15     13%     30.15        
Oct 15 08:31 NW 6   Clear   67 16     14%     30.15        
Oct 15 08:16 NW 4   Clear   67 19     16%     30.15        
Oct 15 08:01 NW 5   Clear   66 19     16%     30.14        
Oct 15 07:46 WNW 7   Clear   66 17     15%     30.13        
Oct 15 07:32 NNW 9   Clear   66 17     15%     30.12        
Oct 15 07:16 W 12   Clear   66 17     15%     30.11        
Oct 15 07:01 W 15   Clear   67 16     14%     30.11        
Oct 15 06:46 NW 14   Clear   67 16     14%     30.1        
Oct 15 06:30 WNW 9   Clear   68 17     14%     30.09        
Oct 15 06:16 NW 8   Clear   68 17     14%     30.09        
Oct 15 06:00 NNW 5   Clear   68 15     13%     30.08        
Oct 15 05:46 WNW 5   Clear   68 17     14%     30.06        
Oct 15 05:30 NW 6   Clear   68 22     17%     30.06        
Oct 15 05:15 WNW 5   Clear   67 26     21%     30.05        
Oct 15 05:00 Calm   Clear   67 25     20%     30.05        
Oct 15 04:30 W 5   Clear   68 27     21%     30.04        
Oct 15 04:15 WNW 1   Clear   70 23     17%     30.04        
Oct 15 04:00 NW 2   Clear   69 29     22%     30.04        
Oct 15 03:45 NW 1   Clear   69 31     24%     30.04        
Oct 15 03:30 NW 3   Clear   69 30     23%     30.04        
Oct 15 03:15 NW 1   Clear   70 30     23%     30.04        
Oct 15 03:00 NW 5   Clear   71 27     19%   69 30.03        
Oct 15 02:45 N 1   Clear   68 32     26%     30.03        
Oct 15 02:30 Calm   Clear   69 34     27%     30.03        
Oct 15 02:15 Calm   Clear   69 29     22%     30.03        
Oct 15 02:02 Calm   Clear   70 33     25%     30.02        
Oct 15 01:47 Calm   Clear   70 32     24%     30.02        
Oct 15 01:32 Calm   Clear   71 32     24%   69 30.01        
Oct 15 01:16 Calm   Clear   73 31     21%   71 30.01        
Oct 15 01:01 Calm   Clear   74 28     18%   72 29.99        
Oct 15 00:46 Calm   Clear   73 27     18%   71 29.99        
Oct 15 00:30 Calm   Clear   73 33     23%   71 29.99        
Oct 15 00:17 Calm   Clear   73 32     22%   71 29.98        
Oct 15 00:01 Calm   Clear   74 34     23%   72 29.98        
Oct 14 23:46 Calm   Clear   76 31     19%   74 29.98        
Oct 14 23:31 Calm   Clear   77 30     18%   75 29.97        
Oct 14 23:15 N 2   Clear   77 29     17%   75 29.96        
Oct 14 23:00 N 8   Clear   77 30     18%   75 29.96        
Oct 14 22:45 NNE 4   Clear   77 35     22%   75 29.95        
Oct 14 22:15 Calm   Clear   75 59     57%   75 29.93        
Oct 14 22:00 SW 1   Clear   76 57     51%   76 29.93        
Oct 14 21:46 Calm   Clear   75 60     59%   75 29.92        
Oct 14 21:30 Calm   Clear   76 61     59%   76 29.91        
Oct 14 21:15 Calm   Clear   76 60     58%   76 29.91        
Oct 14 21:00 Calm   Clear   76 59     56%   76 29.9        
Oct 14 20:45 Calm   Clear   76 58     53%   76 29.89        
Oct 14 20:30 Calm   Clear   77 58     52%   77 29.89        
Oct 14 20:15 Calm   Clear   77 57     50%   77 29.89        
Oct 14 20:00 Calm   Clear   77 56     49%   77 29.88        
Oct 14 19:45 Calm   Clear   78 57     49%   78 29.88        
Oct 14 19:30 Calm   Clear   78 58     50%   78 29.87        
Oct 14 19:15 Calm   Clear   78 59     52%   78 29.86        
Oct 14 19:00 SE 2   Clear   78 59     52%   78 29.86        
Oct 14 18:45 SE 2   Clear   78 59     52%   78 29.85        
Oct 14 18:30 Calm   Clear   80 59     49%   81 29.85        
Oct 14 18:15 SE 1   Clear   81 55     41%   81 29.85        
Oct 14 18:00 Calm   Clear   82 54     38%   81 29.84        
Oct 14 17:45 Calm   Clear   82 52     36%   81 29.84        
Oct 14 17:30 Calm   Clear   83 52     34%   82 29.84        
Oct 14 17:15 Calm   Clear   83 52     34%   82 29.83        
Oct 14 17:00 Calm   Clear   83 52     34%   82 29.83        
Oct 14 16:45 SSE 2   Clear   84 50     31%   82 29.83        
Oct 14 16:30 SE 3   Clear   84 51     32%   82 29.84        
Oct 14 16:15 Calm   Clear   85 51     31%   83 29.84        
Oct 14 16:00 Calm   Clear   85 50     30%   83 29.84        
Oct 14 15:46 Calm   Clear   84 52     33%   82 29.84        
Oct 14 15:32 SE 1   Clear   84 51     32%   82 29.84        
Oct 14 15:17 Calm   Clear   85 51     31%   83 29.84        
Oct 14 15:01 Calm   Clear   84 52     33%   82 29.84        
Oct 14 14:46 Calm   Clear   85 53     34%   83 29.84        
Oct 14 14:31 Calm   Clear   85 53     34%   83 29.85        
Oct 14 14:16 Calm   Clear   83 52     35%   82 29.84        
Oct 14 14:01 Calm   Clear   83 52     35%   82 29.85        
Oct 14 13:46 Calm   Clear   82 53     37%   81 29.85        
Oct 14 13:31 Calm   Clear   82 54     38%   81 29.86        
Oct 14 13:16 Calm   Clear   80 53     39%   80 29.86        
Oct 14 13:00 Calm   Clear   80 52     38%   79 29.86        
Oct 14 12:46 Calm   Clear   80 53     39%   80 29.87        
Oct 14 12:31 Calm   Clear   80 53     39%   80 29.88        
Oct 14 12:15 Calm   Clear   79 52     39%   78 29.88        
Oct 14 12:01 WNW 1   Clear   79 53     41%   79 29.88        
Oct 14 11:46 Calm   Clear   79 54     42%   79 29.88        
Oct 14 11:30 W 2   Clear   78 54     43%   78 29.89        
Oct 14 11:15 WNW 4   Clear   77 54     45%   77 29.89        
Oct 14 11:00 W 2   Clear   77 54     45%   77 29.89        
Oct 14 10:45 WNW 4   Clear   76 54     47%   76 29.89        
Oct 14 10:30 WNW 3   Clear   76 55     48%   76 29.89        
Oct 14 10:16 WNW 3   Clear   75 55     49%   75 29.88        
Oct 14 10:00 WNW 9   Clear   74 55     51%   73 29.88        
Oct 14 09:45 WNW 9   Clear   73 55     53%   72 29.88        
Oct 14 09:30 NW 9   Clear   72 54     53%   71 29.88        
Oct 14 09:15 NW 10   Clear   72 54     54%   71 29.88        
Oct 14 08:45 NW 6   Clear   70 54     57%     29.87        
Oct 14 08:30 WNW 3   Clear   70 55     58%     29.86        
Oct 14 08:16 NW 6   Clear   69 54     59%     29.86        
Oct 14 08:03 WNW 3   Clear   68 54     61%     29.85        
Oct 14 07:46 Calm   Clear   67 54     62%     29.85        
Oct 14 07:31 Calm   Clear   67 54     64%     29.84        
Oct 14 07:17 Calm   Clear   66 53     64%     29.83        
Oct 14 07:01 WNW 1   Clear   66 53     64%     29.83        
Oct 14 06:47 WNW 2   Clear   66 53     64%     29.82        
Oct 14 06:33 WNW 1   Clear   67 54     63%     29.81        
Oct 14 06:16 WNW 2   Clear   67 54     62%     29.81        
Oct 14 06:01 WNW 2   Clear   67 54     62%     29.8        
Oct 14 05:46 Calm   Clear   67 54     62%     29.8        
Oct 14 05:30 WNW 3   Clear   67 54     62%     29.79        
Oct 14 05:15 WNW 4   Clear   68 54     62%     29.79        
Oct 14 05:00 WNW 4   Clear   68 54     62%     29.78        
Oct 14 04:45 WNW 6   Clear   68 54     62%     29.78        
Oct 14 04:31 WNW 6   Clear   68 54     62%     29.78        
Oct 14 04:16 WNW 6   Clear   68 54     62%     29.78        
Oct 14 04:01 W 9   Clear   68 55     63%     29.78        
Oct 14 03:46 WNW 5   Clear   68 55     63%     29.78        
Oct 14 03:30 WNW 7   Clear   68 55     63%     29.78        
Oct 14 03:16 WNW 7   Clear   68 55     63%     29.78        
Oct 14 03:00 WNW 9   Clear   68 55     63%     29.78        
Oct 14 02:45 WNW 8   Clear   68 55     63%     29.78        
Oct 14 02:30 WNW 5   Clear   68 55     63%     29.78        
Oct 14 02:15 NW 6   Clear   69 56     63%     29.78        
Oct 14 02:00 WNW 5   Clear   69 56     63%     29.79        
Oct 14 01:30 WNW 1   Clear   69 56     63%     29.79        
Oct 14 01:15 WNW 6   Clear   69 56     63%     29.78        
Oct 14 01:00 NW 6   Clear   69 56     63%     29.78        
Oct 14 00:45 NW 8   Clear   69 55     62%     29.78        
Oct 14 00:30 WNW 6   Clear   69 55     62%     29.78        
Oct 14 00:15 WNW 1   Clear   69 55     62%     29.78        
Oct 14 00:00 WNW 2   Clear   70 55     60%     29.79        
Oct 13 23:45 WNW 6   Clear   70 55     60%     29.78        
Oct 13 23:30 NW 2   Clear   70 55     60%     29.78        
Oct 13 23:15 WNW 8   Clear   70 55     59%     29.79        
Oct 13 23:00 NW 6   Clear   70 55     59%     29.79        
Oct 13 22:45 WNW 1   Clear   70 55     58%     29.78        
Oct 13 22:31 WNW 6   Clear   70 55     58%     29.79        
Oct 13 22:18 WNW 8   Clear   70 55     58%     29.79        
Oct 13 22:01 NW 9   Clear   70 55     58%     29.79        
Oct 13 21:47 WNW 5   Clear   70 55     58%     29.79        
Oct 13 21:31 W 7   Clear   70 54     57%     29.78        
Oct 13 21:16 WNW 7   Clear   70 54     57%     29.78        
Oct 13 21:02 WNW 3   Clear   70 55     58%     29.78        
Oct 13 20:48 W 5   Clear   70 55     58%     29.78        
Oct 13 20:32 Calm   Clear   71 55     58%   71 29.78        
Oct 13 20:17 Calm   Clear   71 55     58%   71 29.78        
Oct 13 20:01 WNW 5   Clear   71 55     57%   70 29.77        
Oct 13 19:46 WNW 6   Clear   71 54     56%   70 29.77        
Oct 13 19:16 WNW 6   Clear   72 55     56%   72 29.76        
Oct 13 19:01 NW 8   Clear   72 55     55%   71 29.75        
Oct 13 18:46 NNW 5   Clear   73 55     54%   73 29.75        
Oct 13 18:32 NW 8   Clear   74 55     52%   74 29.75        
Oct 13 18:16 NW 7   Clear   75 55     50%   75 29.75        
Oct 13 18:01 NW 6   Clear   75 55     49%   75 29.74        
Oct 13 17:47 NW 9   Clear   76 55     48%   76 29.74        
Oct 13 17:31 NNW 4   Clear   77 55     47%   77 29.74        
Oct 13 17:15 NW 4   Clear   78 55     45%   78 29.74        
Oct 13 17:02 NW 8   Clear   78 55     45%   78 29.73        
Oct 13 16:46 NNW 5   Clear   79 55     43%   79 29.73        
Oct 13 16:31 NNW 8   Clear   79 54     42%   79 29.73        
Oct 13 16:17 NW 2   Clear   79 55     43%   79 29.73        
Oct 13 15:31 WNW 1   Clear   81 55     41%   81 29.74        
Oct 13 15:01 NW 7   Clear   80 54     41%   80 29.73        
Oct 13 14:45 WNW 11   Clear   79 53     41%   79 29.73        
Oct 13 14:31 WNW 9   Clear   80 54     41%   80 29.73        
Oct 13 14:16 WNW 8   Clear   80 55     42%   80 29.74        
Oct 13 13:31 WNW 10   Clear   79 55     43%   79 29.75        
May 15 01:10 WNW 8   Clear   72 50     46%   71 29.82        
Notice The following observation data may not be complete
May 14 23:55     Clear            %              
Notice The following observation data may not be complete
May 14 18:56     Clear            %              
May 14 18:10 W 4   Clear   89        %     29.73        
May 14 15:55 Calm   Clear   88 27     11%   84 29.76        
Notice The following observation data may not be complete
May 14 10:39     Clear            %              
May 14 09:56 Calm   Clear   77 47     35%   76 29.86        
May 14 09:24 W 1   Clear   75 46     36%   74 29.86        
Notice The following observation data may not be complete
May 14 07:38     Clear            %              
May 14 00:07 NW 7   Clear   69 48     48%     29.83        
May 13 23:52 NW 4   Clear   69 48     47%     29.83        
Notice The following observation data may not be complete
May 13 21:52     Clear            %              
May 13 19:07 NW 8   Clear   80 44     28%   79 29.78        
Notice The following observation data may not be complete
May 13 15:52     Clear            %              
Notice The following observation data may not be complete
May 13 14:37     Clear            %              
May 13 14:22 W 2   Clear   82 45     27%   80 29.83        
May 13 12:22 Calm   Clear   78 44     30%   77 29.89        
May 13 12:07 NW 3   Clear   78 44     30%   77 29.89        
May 13 09:06 NW 7   Clear   71 47     42%   70 29.9        
May 13 07:06 NW 6   Clear   66 48     52%     29.87        
May 13 05:06 WNW 9   Clear   64 46     51%     29.83        
May 13 02:21 NNW 10   Clear   66 46     49%     29.8        
May 13 01:20 WNW 12   Clear   67 47     48%     29.82        
May 12 20:35 NW 11   Clear   71 45     40%   70 29.78        
May 12 19:05 NW 9   Clear   75 45     34%   74 29.75        
Notice The following observation data may not be complete
May 12 18:20 NNW 10   Clear     45      %     29.75        
May 12 16:35 WNW 7   Clear   82 44     26%   80 29.74        
May 12 14:35 WNW 1   Clear   82 44     26%   80 29.77        
May 12 13:35 W 6   Clear   80 45     29%   79 29.79        
Notice The following observation data may not be complete
May 12 12:50     Clear            %              
May 12 09:49 NW 10   Clear   72 45     38%   71 29.83        
May 12 07:34 NW 6   Clear   66 46     48%     29.81        
May 12 07:04 WNW 10   Clear   64 45     50%     29.8        
May 12 06:49 WNW 7   Clear   64 45     50%     29.79        
May 12 01:18 NW 14   Clear   65 46     50%     29.68        
May 12 00:33 NW 11   Clear   66 47     50%     29.67        
May 12 00:03 NW 11   Clear   66 46     49%     29.68        
May 11 18:02 NW 9   Clear   77 48     36%   76 29.57        
May 11 16:47 WNW 10   Clear   84 46     27%   82 29.57        
May 11 15:47 NNW 9   Clear   85 48     28%   83 29.57        
May 11 10:47 Calm   Clear   81 48     32%   80 29.67        
Jun 12 04:49 WNW 5   Clear   66 46     48%     29.83        
Jun 11 22:31 NNW 12   Clear   69 47     45%     29.79        
Jun 11 21:16 NW 10   Clear   72 47     41%   71 29.75        
Jun 11 19:01 NW 9   Clear   81 47     30%   80 29.69        
Jun 11 17:00 NW 9   Clear   86 43     22%   83 29.66        
Jun 11 16:30 NW 9   Clear   87 45     23%   84 29.67        
Jun 11 16:16 NNW 8   Clear   87 46     24%   84 29.67        
Jun 11 15:16 NW 11   Clear   86 44     23%   83 29.68        
Jun 11 12:45 NW 11   Clear   83 47     28%   81 29.72        
Jun 11 11:30 NW 7   Clear   81 47     31%   80 29.72        
Jun 11 10:30 WNW 9   Clear   79 47     33%   78 29.72        
Jun 11 05:14 WNW 2   Clear   67 47     48%     29.66        
Jun 11 04:59 NW 6   Clear   68 48     48%     29.65        
Jun 11 03:44 WNW 6   Clear   69 48     48%     29.64        
Jun 11 00:13 NW 9   Clear   73 50     44%   72 29.63        
Jun 10 22:13 NNW 13   Clear   75 50     42%   74 29.63        
Jun 10 21:43 NW 11   Clear   77 51     40%   76 29.62        
Jun 10 21:13 NNW 8   Clear   78 50     38%   77 29.62        
Jun 10 19:13 NW 11   Clear   85 52     32%   83 29.6        
Jun 10 18:28 NW 8   Clear   88 51     28%   85 29.59        
Jun 10 17:43 NW 16   Clear   90 47     23%   87 29.59        
Jun 10 16:43 WNW 5   Clear   94 41     16%   90 29.59        
Jun 10 14:43 WNW 2   Clear   94 41     16%   90 29.63        
Jun 10 10:14 W 4   Clear   85 47     27%   83 29.7        
Jun 10 09:12 WNW 7   Clear   83 47     28%   81 29.7        
Jun 09 21:56 NW 8   Clear   82 52     36%   81 29.67        
Jun 09 17:11 NW 2   Clear   99 51     20%   96 29.62        
Jun 09 14:25 Calm   Clear   99 40     13%   94 29.68        
Jun 09 13:55 WNW 4   Clear   99 40     13%   94 29.68        
Jun 09 07:39 W 2   Clear   79 50     37%   78 29.75        
Jun 09 02:54 WNW 9   Clear   80 42     26%   79 29.73        
Jun 09 00:39 NW 3   Clear   83 32     16%   80 29.73        
Jun 08 15:23 W 5   Clear   101 41     13%   96 29.72        
Jun 08 14:38 Calm   Clear   99 45     16%   95 29.74        
Jun 08 13:23 NW 1   Clear   95 45     18%   91 29.78        
Jun 08 12:07 Calm   Clear   91 51     26%   88 29.83        
Jun 08 08:07 Calm   Clear   77 55     47%   77 29.85        
Jun 08 07:52 Calm   Clear   76 55     48%   76 29.84        
Jun 08 06:52 Calm   Clear   74 56     54%   74 29.81        
Jun 08 05:36 WNW 2   Clear   73 55     53%   72 29.79        
Jun 08 03:51 W 10   Clear   75 55     49%   75 29.77        
Jun 08 02:36 WNW 9   Clear   77 54     45%   77 29.76        
Jun 07 23:51 WNW 7   Clear   82 54     38%   81 29.75        
Jun 07 22:51 WNW 6   Clear   84 56     38%   83 29.75        
Jun 07 20:06 Calm   Clear   95 43     17%   91 29.7        
Jun 07 15:50 SE 3   Clear   97 42     15%   93 29.73        
Jun 07 12:20 Calm   Clear   91 49     24%   88 29.81        
Jun 07 12:05 ESE 1   Clear   91 50     25%   88 29.82        
Jun 07 09:19 Calm   Clear   83 58     42%   83 29.83        
Notice The following observation data may not be complete
Jun 07 09:04 Calm   Clear     58      %     29.83        
Jun 06 07:32 Calm   Clear   81 55     41%   81 29.8        
Jun 06 07:17 Calm   Clear   81 55     41%   81 29.8        
Jun 06 07:02 Calm   Clear   80 55     42%   80 29.79        
Jun 05 23:46 Calm   Clear   87 55     34%   85 29.73        
Jun 05 22:46 Calm   Clear   90 53     29%   88 29.72        
Jun 05 20:46 Calm   Clear   97 54     24%   95 29.67        
Jun 05 20:31 Calm   Clear   98 55     24%   96 29.66        
Jun 05 15:46 S 7   Clear   102 46     15%   98 29.66        
Jun 05 15:01 Calm   Clear   103 46     15%   99 29.67        
Jun 05 14:46 SW 5   Clear   103 46     15%   99 29.67